This demonstration page uses our WeatherBlox Daily Observations layout. Learn more.

Hourly Observations for June 10, 2015

Temp ( °F °C ) Dew Point ( °F °C ) Humidity (%) Winds ( mph kmh ) Pressure ( in mb ) Visibility ( mi km ) Precip ( " mm )
12:15 am 00:15 Clear 75 24 57 14 54 54 SSW 5 7 29.71 1006 10 16.09344 0 0
12:35 am 00:35 Clear 75 24 55 13 50 50 SSW 5 7 29.71 1006 10 16.09344 0 0
12:55 am 00:55 Clear 75 24 55 13 50 50 SSW 6 9 29.71 1006 10 16.09344 0 0
1:15 am 01:15 Clear 75 24 54 12 47 47 SSW 7 11 29.71 1006 10 16.09344 0 0
1:35 am 01:35 Clear 73 23 55 13 53 53 SSW 6 9 29.71 1006 10 16.09344 0 0
1:55 am 01:55 Clear 73 23 55 13 53 53 SW 6 9 29.68 1005 10 16.09344 0 0
2:15 am 02:15 Clear 73 23 55 13 53 53 SSW 7 11 29.68 1005 10 16.09344 0 0
2:35 am 02:35 Clear 73 23 55 13 53 53 SW 6 9 29.68 1005 10 16.09344 0 0
2:55 am 02:55 Clear 73 23 55 13 53 53 SW 5 7 29.68 1005 10 16.09344 0 0
3:15 am 03:15 Clear 72 22 55 13 57 57 SW 5 7 29.68 1005 10 16.09344 0 0
3:35 am 03:35 Clear 72 22 55 13 57 57 WSW 7 11 29.68 1005 10 16.09344 0 0
3:55 am 03:55 Clear 75 24 57 14 54 54 WSW 6 9 29.68 1005 10 16.09344 0 0
4:15 am 04:15 Clear 73 23 57 14 57 57 WSW 6 9 29.68 1005 10 16.09344 0 0
4:35 am 04:35 Clear 73 23 57 14 57 57 WSW 8 13 29.68 1005 10 16.09344 0 0
4:55 am 04:55 Clear 73 23 57 14 57 57 WSW 6 9 29.68 1005 10 16.09344 0 0
5:15 am 05:15 Clear 72 22 57 14 61 61 WSW 5 7 29.68 1005 10 16.09344 0 0
5:35 am 05:35 Clear 72 22 57 14 61 61 WSW 3 6 29.68 1005 10 16.09344 0 0
5:55 am 05:55 Clear 68 20 57 14 69 69 Calm 29.71 1006 10 16.09344 0 0
6:15 am 06:15 Sunny 70 21 57 14 64 64 SSW 3 6 29.68 1005 10 16.09344 0 0
6:35 am 06:35 Sunny 72 22 57 14 61 61 SSW 6 9 29.71 1006 10 16.09344 0 0
6:55 am 06:55 Sunny 70 21 57 14 64 64 SSW 5 7 29.74 1007 10 16.09344 0 0
7:15 am 07:15 Sunny 72 22 59 15 65 65 SSW 3 6 29.71 1006 10 16.09344 0 0
7:35 am 07:35 Sunny 73 23 61 16 65 65 SSW 3 6 29.71 1006 10 16.09344 0 0
7:55 am 07:55 Sunny 75 24 61 16 61 61 Calm 29.71 1006 10 16.09344 0 0
8:15 am 08:15 Sunny 77 25 63 17 61 61 Calm 29.68 1005 10 16.09344 0 0
8:35 am 08:35 Sunny 79 26 63 17 58 58 Calm 29.68 1005 10 16.09344 0 0
8:55 am 08:55 Sunny 81 27 63 17 54 54 SSW 3 6 29.68 1005 10 16.09344 0 0
9:15 am 09:15 Sunny 82 28 63 17 51 51 Calm 29.68 1005 10 16.09344 0 0
9:35 am 09:35 Sunny 84 29 63 17 48 48 Calm 29.62 1003 10 16.09344 0 0
9:55 am 09:55 Sunny 86 30 63 17 46 46 S 3 6 29.62 1003 10 16.09344 0 0
10:15 am 10:15 Sunny 88 31 63 17 43 43 SSW 6 9 29.62 1003 10 16.09344 0 0
10:35 am 10:35 Sunny 90 32 61 16 38 38 SSW 10 17 29.62 1003 10 16.09344 0 0
10:55 am 10:55 Sunny 90 32 59 15 36 36 S 12 19 29.62 1003 10 16.09344 0 0
11:15 am 11:15 Sunny 90 32 59 15 36 36 S 15 24 29.62 1003 10 16.09344 0 0
11:35 am 11:35 Sunny 91 33 59 15 34 34 S 14 22 29.59 1002 10 16.09344 0 0
11:55 am 11:55 Sunny 91 33 59 15 34 34 S 15 24 29.59 1002 10 16.09344 0 0
12:15 pm 12:15 Sunny 90 32 59 15 36 36 S 14 22 29.62 1003 10 16.09344 0 0
12:35 pm 12:35 Sunny 90 32 61 16 38 38 S 17 28 29.62 1003 10 16.09344 0 0
12:55 pm 12:55 Sunny 91 33 54 12 28 28 S 13 20 29.59 1002 10 16.09344 0 0
1:15 pm 13:15 Sunny 91 33 55 13 30 30 S 14 22 29.59 1002 10 16.09344 0 0
1:35 pm 13:35 Sunny 91 33 54 12 28 28 SSE 10 17 29.59 1002 10 16.09344 0 0
1:55 pm 13:55 Sunny 90 32 61 16 38 38 SSE 15 24 29.62 1003 10 16.09344 0 0
2:15 pm 14:15 Sunny 91 33 59 15 34 34 S 13 20 29.59 1002 10 16.09344 0 0
2:35 pm 14:35 Sunny 91 33 57 14 32 32 S 15 24 29.56 1001 10 16.09344 0 0
2:55 pm 14:55 Sunny 93 34 57 14 30 30 S 17 28 29.56 1001 10 16.09344 0 0
3:15 pm 15:15 Sunny 90 32 59 15 36 36 S 16 26 29.56 1001 10 16.09344 0 0
3:35 pm 15:35 Sunny 90 32 59 15 36 36 S 17 28 29.53 1000 10 16.09344 0 0
3:55 pm 15:55 Sunny 90 32 59 15 36 36 SE 15 24 29.53 1000 10 16.09344 0 0
4:15 pm 16:15 Sunny 88 31 61 16 40 40 SE 14 22 29.53 1000 10 16.09344 0 0
4:35 pm 16:35 Sunny 88 31 61 16 40 40 SE 9 15 29.53 1000 10 16.09344 0 0
4:55 pm 16:55 Sunny 88 31 63 17 43 43 SE 12 19 29.53 1000 10 16.09344 0 0
5:15 pm 17:15 Sunny with Nearby Thunderstorms 86 30 63 17 46 46 SE 12 19 29.53 1000 10 16.09344 0 0
5:35 pm 17:35 Sunny 86 30 63 17 46 46 SE 10 17 29.53 1000 10 16.09344 0 0
5:55 pm 17:55 Sunny 86 30 63 17 46 46 SE 10 17 29.53 1000 10 16.09344 0 0
6:15 pm 18:15 Partly Cloudy with Nearby Thunderstorms 84 29 61 16 45 45 ESE 10 17 29.5 999 10 16.09344 0 0
6:35 pm 18:35 Mostly Cloudy with Light Rain 82 28 63 17 51 51 ESE 9 15 29.5 999 10 16.09344 0 0
6:55 pm 18:55 Cloudy with Nearby Thunderstorms 77 25 63 17 61 61 N 10 17 29.53 1000 10 16.09344 0 0
7:15 pm 19:15 Cloudy with Nearby Thunderstorms 73 23 63 17 69 69 NNW 22 35 29.62 1003 10 16.09344 0 0
7:35 pm 19:35 Mostly Cloudy 72 22 63 17 73 73 NE 10 17 29.62 1003 10 16.09344 0 0
7:55 pm 19:55 Partly Cloudy with Nearby Thunderstorms 70 21 63 17 78 78 NE 18 30 29.62 1003 10 16.09344 0 0
8:15 pm 20:15 Mostly Cloudy 68 20 63 17 83 83 N 15 24 29.65 1004 10 16.09344 0 0
8:35 pm 20:35 Cloudy with Nearby Thunderstorms 68 20 63 17 83 83 NNW 15 24 29.68 1005 10 16.09344 0.01 0.254
8:55 pm 20:55 Cloudy with Thunderstorms 68 20 63 17 83 83 WNW 14 22 29.71 1006 10 16.09344 0.05 1.27
9:15 pm 21:15 Cloudy 66 19 63 17 88 88 Calm 29.74 1007 2.5 4.02336 0.57 14.478
9:35 pm 21:35 Cloudy with Rain 64 18 63 17 94 94 NNE 15 24 29.71 1006 7 11.265408 0.7 17.78
9:55 pm 21:55 Partly Cloudy 66 19 63 17 88 88 NE 16 26 29.68 1005 10 16.09344 0.71 18.034
10:15 pm 22:15 Mostly Cloudy with Nearby Thunderstorms 64 18 63 17 94 94 NE 17 28 29.68 1005 10 16.09344 0 0
10:35 pm 22:35 Mostly Cloudy 64 18 63 17 94 94 ENE 14 22 29.68 1005 10 16.09344 0 0
10:55 pm 22:55 Cloudy with Nearby Thunderstorms 66 19 63 17 88 88 ENE 17 28 29.68 1005 10 16.09344 0 0
11:15 pm 23:15 Cloudy with Light Rain 66 19 64 18 94 94 ENE 16 26 29.65 1004 10 16.09344 0.01 0.254
11:35 pm 23:35 Partly Cloudy 66 19 64 18 94 94 ENE 17 28 29.65 1004 10 16.09344 0.01 0.254
11:55 pm 23:55 Mostly Cloudy 66 19 63 17 88 88 NE 16 26 29.65 1004 10 16.09344 0.01 0.254

Powered by AerisWeather